Regional Weather Roundup
Issued by NWS

Home | Current Version | Previous Version | Text Only | Print | Product List | Glossary Off
Versions: 1 2 3 4 5 6 7 8 9 10 11 12 13 14 15 16 17 18 19 20 21 22 23 24 25 26 27

000
ASUS45 KTFX 292010
RWRMT
MONTANA REGIONAL WEATHER ROUNDUP
NATIONAL WEATHER SERVICE GREAT FALLS MT
200 PM MDT THU SEP 29 2016

NOTE: "FAIR" INDICATES FEW OR NO CLOUDS BELOW 12000 FEET WITH NO
SIGNIFICANT WEATHER AND/OR OBSTRUCTIONS TO VISIBILITY.

MTZ001>007-043-292100-
WEST OF THE DIVIDE

CITY           SKY/WX    TMP DP  RH WIND       PRES   REMARKS
KALISPELL      CLOUDY    71  46  40 CALM      30.01F
MISSOULA       PTSUNNY   74  44  34 SW3       30.03F
BUTTE          SUNNY     74  37  26 VRB6      30.15F
MULLAN PASS    PTSUNNY   66  44  45 S5        30.13S
ANACONDA         N/A     81  34  18 S9        30.09F
DEER LODGE       N/A     81  37  21 SE8       30.10F
EUREKA           N/A     61  43  51 E6        30.05F
HAMILTON         N/A     73  45  35 NE7       30.02F
LIBBY            N/A     64  46  52 CALM      30.01F
PLAINS           N/A     70  48  45 CALM      30.00F
RONAN            N/A     73  48  41 SW3       30.07F
$$

MTZ008-052>055-292100-
SOUTHWEST MONTANA

CITY           SKY/WX    TMP DP  RH WIND       PRES   REMARKS
BOZEMAN        CLOUDY    72  50  45 CALM      30.12F
DILLON         CLOUDY    73  41  31 CALM      30.15F
W YELLOWSTONE  CLOUDY    64  39  39 SW18G26   30.31F
ENNIS          MOSUNNY   77  41  27 SE21G26   30.21F
THREE FORKS      N/A     71  71 100 MISG      30.09F
TWIN BRIDGES     N/A     74  43  32 S5        30.12F
$$

MTZ009-010-012-014-046-048-049-054-292100-
EAST SLOPES AND CENTRAL MONTANA

CITY           SKY/WX    TMP DP  RH WIND       PRES   REMARKS
CUT BANK       SUNNY     67  48  50 SE9G17    30.08F
GREAT FALLS    SUNNY     73  50  44 E7        30.05F
MALMSTROM AFB  SUNNY     70  51  50 NE9       30.05F
HELENA         SUNNY     71  49  45 VRB3      30.07F
AUGUSTA          N/A     71  46  40 S7        30.08F
BOWMANS CRNR     N/A     74  42  31 S16       30.05F
CHOTEAU          N/A     72  50  46 E6        30.08F
CONRAD           N/A     68  56  65 CALM      30.09F
FAIRFIELD        N/A     71  47  41 E6        30.05F
POWER            N/A     73  47  38 SE8       30.05F
RAYNESFORD       N/A     74  51  45 NW3       30.07F
$$

MTZ011-013-016-021-045-047-050-051-292100-
NORTH CENTRAL MONTANA

CITY           SKY/WX    TMP DP  RH WIND       PRES   REMARKS
HAVRE          SUNNY     72  53  51 NE5       30.03F
LEWISTOWN      SUNNY     77  44  30 SW14      30.08F
N BAR RANCH    PTSUNNY   77  50  38 SE6       30.13F
CHINOOK          N/A     70  54  56 CALM      30.03F
DENTON         MOCLDY    71  54  55 NE9       30.03F
GEYSER           N/A     71  46  40 S7        30.08F
GRASS RANGE      N/A     76  53  44 E7        30.04F
JUDITH GAP       N/A     79  44  28 SW10G20   30.11F
ROY              N/A     73  54  50 MISG      30.05F
STANFORD         N/A     73  55  52 N8        30.09S
WINIFRED         N/A     71  56  59 MISG      30.06F
$$

MTZ017>020-022>027-061-062-292100-
NORTHEAST MONTANA

CITY           SKY/WX    TMP DP  RH WIND       PRES   REMARKS
GLASGOW        SUNNY     78  46  32 SE17      30.05F
JORDAN           N/A     77  48  35 S9        30.06F
SIDNEY         SUNNY     79  49  34 SE15      30.13F
WOLF POINT     SUNNY     83  46  27 S9G18     30.08F
PLENTYWOOD       N/A     79  43  27 SE17G25   30.13F
POPLAR           N/A     81  46  30 SE14G21   30.09F
SCOBEY           N/A     80  43  27 SE16      30.09F
$$

MTZ028>42-056>058-292100-
SOUTHCENTRAL AND SOUTHEAST MONTANA

CITY           SKY/WX    TMP DP  RH WIND       PRES   REMARKS
BAKER          SUNNY     75  45  34 SE28G35   30.16F
BILLINGS       MOSUNNY   71  50  47 E6        30.10F
LIVINGSTON     PTSUNNY   75  42  30 SW17      30.13F
MILES CITY     SUNNY     80  47  31 SE13      30.07F
BIG TIMBER     SUNNY     75  46  35 W10       30.14F
EKALAKA          N/A     79  42  26 E20       30.12
FORSYTH          N/A     75  46  35 E7        30.06F
HARLOWTON      MOCLDY    71  51  48 S6        30.11F
LAUREL           N/A     74  49  41 E2        30.08F
ROUNDUP          N/A     79  44  28 S12       29.98F
$$

REGIONAL REPORTS...DAKOTAS

CITY           SKY/WX    TMP DP  RH WIND       PRES   REMARKS
WILLISTON      SUNNY     75  46  35 SE15      30.17F
MINOT          SUNNY     71  45  39 SE16G28   30.26F
BEACH            N/A     73  45  35 SE22G30   30.19F
CROSBY           N/A     73  41  31 S17G23    30.20F
WATFORD CITY     N/A     73  46  38 SE18G25   30.18F HAZE
BISMARCK       SUNNY     70  45  40 SE20G26   30.30F
GRAND FORKS    MOSUNNY   66  46  48 S12       30.42F
FARGO          SUNNY     67  44  43 S9G22     30.42F
BUFFALO SD       N/A     79  43  27 SE24G33   30.12F
RAPID CITY     SUNNY     77  43  29 SE15G23   30.22F
$$

REGIONAL REPORTS...WYOMING/IDAHO/WASHINGTON

CITY           SKY/WX    TMP DP  RH WIND       PRES   REMARKS
GILLETTE       SUNNY     78  46  32 S21G29    30.18F
SHERIDAN       MOSUNNY   69  53  56 CALM      30.13F
BUFFALO WY     CLOUDY    79  46  31 SE12      30.18F
CODY           CLOUDY    77  40  26 SW8       30.19F
YELLOWSTONE LA   N/A     56  41  57 VRB5      30.41F
IDAHO FALLS    PTSUNNY   73  46  38 SW10      30.20F
SALMON         CLOUDY    73  43  33 NW5       30.08F
BOISE          MOSUNNY   87  38  17 SE8       30.01F
SPOKANE        PTSUNNY   73  47  39 N3        29.97F
$$

REGIONAL REPORTS...ALBERTA

CITY           SKY/WX    TMP DP  RH WIND       PRES   REMARKS
CALGARY        CLOUDY    54  41  62 E6        30.12F
LETHBRIDGE     MOSUNNY   61  46  59 VRB6      30.09F
MEDICINE HAT   MOSUNNY   64  48  55 N10       30.06F
WATERTON GATE    N/A     61  45  55 NE7         N/A
CARDSTON         N/A     63  46  55 SW2         N/A
MILK RIVER       N/A     64  48  55 N8          N/A
$$

REGIONAL REPORTS...SASKATCHEWAN

CITY           SKY/WX    TMP DP  RH WIND       PRES   REMARKS
SWIFT CURRENT  SUNNY     72  54  53 E5        30.07F
REGINA         MOSUNNY   77  43  29 SE24G31   30.11F
SASKATOON      PTSUNNY   63  50  63 NE13      30.14F
CYPRESS HILLS    N/A     70  50  49 E5          N/A
VAL MARIE        N/A     75  46  35 SE10        N/A
ROCKGLEN         N/A     75  43  31 SE17G25     N/A
ASSINIBOIA       N/A     61  37  41 NE6         N/A
$$




USA.gov is the U.S. government's official web portal to all federal, state and local government web resources and services.